Location: Sungai Laei
(2.6000°N, 113.7167°E)
Time: 09:58:53
(UTC+00:00)

IRAS Rocket - Pass Details

Date: 22 May 2022
Orbit: 848 x 877 km, 100.1° (Epoch: 06 July)

Event Time Altitude Azimuth Distance (km) Brightness Sun altitude
Rises 12:19:45 0° 15° (NNE) 3,455 7.5 -26.4°
Reaches altitude 10° 12:22:07 10° 16° (NNE) 2,520 6.7 -26.9°
Enters shadow 12:27:07 71° 36° (NE) 923 4.2 -28.1°
